MST,Max TemperatureF,Mean TemperatureF,Min TemperatureF,Max Dew PointF,MeanDew PointF,Min DewpointF,Max Humidity, Mean Humidity, Min Humidity, Max Sea Level PressureIn, Mean Sea Level PressureIn, Min Sea Level PressureIn, Max VisibilityMiles, Mean VisibilityMiles, Min VisibilityMiles, Max Wind SpeedMPH, Mean Wind SpeedMPH, Max Gust SpeedMPH,PrecipitationIn, CloudCover, Events, WindDirDegrees
2013-12-1,37,28,20,28,25,19,86,72,59,29.88,29.69,29.51,20,14,6,8,4,,0.00,8,Snow,246
2013-12-2,13,9,5,7,3,0,85,79,69,30.45,30.13,29.86,4,1,0,31,24,38,0.39,8,Snow,338
2013-12-3,8,4,0,0,-2,-6,85,73,60,30.58,30.54,30.51,15,9,2,24,15,25,0.24,7,Snow,345
2013-12-4,5,-4,-14,-6,-13,-20,84,69,43,30.58,30.52,30.46,20,16,15,16,6,,0.00,4,Snow,327
2013-12-5,-6,-15,-24,-13,-19,-28,77,72,59,30.72,30.61,30.51,15,12,4,10,6,,0.00,5,Snow,336
2013-12-6,-13,-19,-27,-22,-28,-33,76,68,51,30.82,30.78,30.75,15,12,6,7,4,,0.04,2,Snow,291
2013-12-7,3,-14,-31,-6,-22,-36,70,64,46,30.59,30.38,29.87,15,15,15,9,6,,0.00,3,Snow,313
2013-12-8,7,-6,-19,1,-3,-8,85,77,58,30.33,30.23,29.84,20,10,1,14,7,20,0.04,6,Snow,330
2013-12-9,19,8,-3,14,10,1,93,79,52,30.14,30.07,29.98,20,9,0,17,12,24,0.12,6,Snow,329
2013-12-10,16,4,-9,14,1,-15,93,82,71,30.43,30.35,30.02,20,8,1,13,7,,0.04,6,Snow,153
2013-12-11,32,10,-13,19,15,7,64,56,42,30.20,30.12,30.04,15,15,15,25,16,31,0.00,6,,287
2013-12-12,37,19,1,23,11,-2,86,72,45,30.12,30.01,29.96,20,13,6,21,13,23,0.00,7,Fog-Snow,106
2013-12-13,36,16,-5,21,2,-9,86,78,52,30.38,30.21,30.08,20,11,3,20,6,24,0.00,5,,248
2013-12-14,42,20,-3,27,25,23,65,52,39,30.09,29.99,29.77,15,15,15,34,23,43,0.00,7,Snow,274
2013-12-15,44,37,28,27,23,19,93,52,27,29.97,29.81,29.75,15,14,6,34,17,52,0.00,4,Snow,285
2013-12-16,28,20,12,19,15,9,93,80,58,30.34,30.21,30.04,20,16,15,14,6,,0.08,5,,156
2013-12-17,47,28,10,25,20,12,79,50,25,30.00,29.80,29.65,15,15,15,34,13,43,0.00,5,,258
2013-12-18,22,12,0,21,7,-4,93,84,70,30.39,30.09,29.86,5,3,0,15,7,24,0.16,8,Snow,17
2013-12-19,14,-5,-20,3,-11,-27,85,74,53,30.40,30.22,29.99,20,16,15,15,6,,0.00,3,,314
2013-12-20,18,3,-12,10,5,-2,85,73,60,29.87,29.73,29.61,20,16,15,8,3,,0.00,7,,134
2013-12-21,11,4,-3,5,2,-4,85,78,65,30.23,30.10,29.90,20,14,4,9,4,,0.02,7,Snow,329
2013-12-22,4,-2,-9,1,-5,-15,92,82,76,30.41,30.36,29.96,15,8,0,9,7,,0.01,5,Snow,143
2013-12-23,42,16,-10,26,20,12,74,57,44,30.01,29.90,29.83,20,16,15,24,12,26,0.00,4,,295
2013-12-24,34,24,14,18,13,5,79,58,40,30.41,30.23,30.12,15,15,15,26,12,33,0.00,4,Snow,267
2013-12-25,41,23,5,25,19,1,92,61,39,30.35,30.17,30.04,15,15,15,31,12,41,0.00,4,Snow,279
2013-12-26,45,40,35,30,28,25,75,57,44,30.04,29.93,29.83,20,16,15,32,18,38,0.00,5,Snow,267
2013-12-27,48,29,8,28,21,3,93,63,24,30.02,29.82,29.70,15,8,2,33,23,45,0.00,5,Fog-Snow,319
2013-12-28,6,3,0,3,-2,-6,85,77,63,30.62,30.55,30.23,20,15,6,12,6,,0.08,7,Snow,165
2013-12-29,38,19,0,25,17,1,86,65,39,30.25,30.02,29.75,20,15,15,26,12,36,0.00,6,Snow,311
2013-12-30,17,10,3,14,7,0,92,88,79,30.25,30.16,30.10,15,4,0,12,8,,0.00,8,Fog-Snow,126
2013-12-31,23,12,0,23,12,-2,100,90,78,30.29,30.17,30.02,20,8,0,8,5,,0.01,7,Snow,307